When you browse on this site, cookies collect data to enhance your experience and personalize the content and advertising you see.
Visit our Privacy Policy to learn more. By continuing to use the site, you agree to this use of cookies and data.
  • In Hungary
  • List of Countries
  • For 7 days
  • Water Temperature
  • Satellite Maps
  • Weather Map
  • News
  • Weather Widgets
  • user-avatar
    Login

    Hourly Weather Korzkiew

    Today, 19 May, Sunday

    Time Temperature Precipitation Wind Pressure Humidity
    00:00 +13°C° 0.1 mm 1 mps 729 mmHg 92%
    01:00 +13°C° 0 mm 1 mps 729 mmHg 92%
    02:00 +12°C° 0 mm 1 mps 729 mmHg 92%
    03:00 +12°C° 0 mm 1 mps 729 mmHg 92%
    04:00 +10°C° 0 mm 0 mps 729 mmHg 92%
    05:00 +13°C° 0 mm 1 mps 729 mmHg 88%
    06:00 +15°C° 0 mm 1 mps 729 mmHg 84%
    07:00 +16°C° 0 mm 1 mps 729 mmHg 81%
    08:00 +18°C° 0 mm 2 mps 729 mmHg 76%
    09:00 +19°C° 0 mm 2 mps 729 mmHg 71%
    10:00 +21°C° 0 mm 2 mps 729 mmHg 66%
    11:00 +22°C° 0.1 mm 3 mps 728 mmHg 64%
    12:00 +24°C° 0.1 mm 3 mps 728 mmHg 62%
    13:00 +23°C° 0 mm 4 mps 729 mmHg 63%
    14:00 +23°C° 0.8 mm 4 mps 728 mmHg 64%
    15:00 +23°C° 0.8 mm 4 mps 728 mmHg 65%
    16:00 +23°C° 0.8 mm 5 mps 728 mmHg 67%
    17:00 +21°C° 0.3 mm 4 mps 728 mmHg 72%
    18:00 +20°C° 0.3 mm 4 mps 728 mmHg 77%
    19:00 +18°C° 0.3 mm 3 mps 728 mmHg 82%
    20:00 +17°C° 0 mm 3 mps 728 mmHg 84%
    21:00 +16°C° 0 mm 3 mps 728 mmHg 87%
    22:00 +15°C° 0 mm 2 mps 728 mmHg 90%
    23:00 +14°C° 0 mm 2 mps 727 mmHg 90%

    Tomorrow, 20 May, Monday

    Time Temperature Precipitation Wind Pressure Humidity
    00:00 +14°C° 0 mm 2 mps 727 mmHg 90%
    01:00 +13°C° 0 mm 1 mps 727 mmHg 91%
    02:00 +13°C° 0 mm 2 mps 726 mmHg 91%
    03:00 +13°C° 0 mm 2 mps 726 mmHg 91%
    04:00 +13°C° 0 mm 2 mps 726 mmHg 91%
    05:00 +13°C° 0 mm 3 mps 726 mmHg 89%
    06:00 +16°C° 0 mm 3 mps 726 mmHg 87%
    07:00 +17°C° 0 mm 4 mps 726 mmHg 84%
    08:00 +19°C° 0 mm 4 mps 726 mmHg 77%
    09:00 +21°C° 0 mm 5 mps 726 mmHg 69%
    10:00 +23°C° 0 mm 5 mps 726 mmHg 62%
    11:00 +25°C° 0.4 mm 5 mps 726 mmHg 60%
    12:00 +25°C° 0.4 mm 4 mps 727 mmHg 58%
    13:00 +25°C° 0.4 mm 4 mps 727 mmHg 55%
    14:00 +25°C° 0.3 mm 3 mps 727 mmHg 56%
    15:00 +25°C° 0.3 mm 3 mps 727 mmHg 56%
    16:00 +25°C° 0.3 mm 2 mps 727 mmHg 57%
    17:00 +23°C° 0.2 mm 2 mps 727 mmHg 62%
    18:00 +20°C° 0.2 mm 2 mps 727 mmHg 67%
    19:00 +18°C° 0.2 mm 2 mps 727 mmHg 72%
    20:00 +17°C° 0 mm 2 mps 727 mmHg 73%
    21:00 +16°C° 0 mm 2 mps 727 mmHg 74%
    22:00 +15°C° 0 mm 2 mps 727 mmHg 75%
    23:00 +14°C° 0 mm 2 mps 727 mmHg 78%

    Day after tomorrow, 21 May, Tuesday

    Time Temperature Precipitation Wind Pressure Humidity
    00:00 +14°C° 0 mm 2 mps 727 mmHg 80%
    01:00 +13°C° 0 mm 2 mps 727 mmHg 83%
    02:00 +13°C° 0 mm 1 mps 727 mmHg 84%
    03:00 +12°C° 0 mm 1 mps 727 mmHg 86%
    04:00 +12°C° 0 mm 1 mps 727 mmHg 87%
    05:00 +13°C° 0 mm 1 mps 727 mmHg 83%
    06:00 +14°C° 0 mm 0 mps 727 mmHg 78%
    07:00 +15°C° 0 mm 0 mps 727 mmHg 73%
    08:00 +16°C° 0.1 mm 0 mps 727 mmHg 72%
    09:00 +17°C° 0.1 mm 0 mps 727 mmHg 71%
    10:00 +19°C° 0.1 mm 1 mps 727 mmHg 70%
    11:00 +19°C° 0.5 mm 1 mps 727 mmHg 71%
    12:00 +18°C° 0.5 mm 2 mps 727 mmHg 72%
    13:00 +18°C° 0.5 mm 2 mps 726 mmHg 74%
    14:00 +18°C° 0.2 mm 3 mps 726 mmHg 75%
    15:00 +18°C° 0.2 mm 4 mps 726 mmHg 75%
    16:00 +18°C° 0.2 mm 4 mps 726 mmHg 76%
    17:00 +17°C° 1 mm 4 mps 726 mmHg 80%
    18:00 +15°C° 1 mm 4 mps 726 mmHg 84%
    19:00 +14°C° 1 mm 3 mps 726 mmHg 88%
    20:00 +14°C° 0.9 mm 4 mps 726 mmHg 89%
    21:00 +13°C° 0.9 mm 4 mps 726 mmHg 90%
    22:00 +13°C° 0.9 mm 4 mps 726 mmHg 92%
    23:00 +13°C° 1.1 mm 4 mps 726 mmHg 92%

    22 May, Wednesday

    Time Temperature Precipitation Wind Pressure Humidity
    00:00 +13°C° 1.1 mm 4 mps 726 mmHg 92%
    01:00 +13°C° 1.1 mm 5 mps 726 mmHg 93%
    02:00 +13°C° 0.7 mm 5 mps 726 mmHg 93%
    03:00 +12°C° 0.7 mm 5 mps 726 mmHg 93%
    04:00 +12°C° 0.7 mm 5 mps 726 mmHg 93%
    05:00 +13°C° 0.4 mm 4 mps 726 mmHg 93%
    06:00 +13°C° 0.4 mm 4 mps 726 mmHg 93%
    07:00 +13°C° 0.4 mm 4 mps 726 mmHg 92%
    08:00 +14°C° 0.2 mm 4 mps 727 mmHg 92%
    09:00 +14°C° 0.2 mm 4 mps 727 mmHg 91%
    10:00 +14°C° 0.2 mm 5 mps 727 mmHg 91%
    11:00 +15°C° 0.9 mm 5 mps 727 mmHg 87%
    12:00 +17°C° 0.9 mm 5 mps 728 mmHg 84%
    13:00 +19°C° 0.9 mm 6 mps 728 mmHg 81%
    14:00 +17°C° 0.6 mm 6 mps 728 mmHg 83%
    15:00 +17°C° 0.6 mm 6 mps 728 mmHg 84%
    16:00 +16°C° 0.6 mm 6 mps 728 mmHg 86%
    17:00 +16°C° 0.6 mm 6 mps 728 mmHg 88%
    18:00 +15°C° 0.6 mm 5 mps 728 mmHg 90%
    19:00 +14°C° 0.6 mm 5 mps 728 mmHg 92%
    20:00 +14°C° 1.2 mm 5 mps 728 mmHg 93%
    21:00 +14°C° 1.2 mm 5 mps 728 mmHg 94%
    22:00 +14°C° 1.2 mm 5 mps 728 mmHg 95%
    23:00 +14°C° 0.5 mm 5 mps 728 mmHg 95%

    23 May, Thursday

    Time Temperature Precipitation Wind Pressure Humidity
    00:00 +14°C° 0.5 mm 5 mps 728 mmHg 95%
    01:00 +14°C° 0.5 mm 6 mps 728 mmHg 94%
    02:00 +14°C° 0.5 mm 6 mps 729 mmHg 94%
    03:00 +14°C° 0.5 mm 5 mps 729 mmHg 94%
    04:00 +14°C° 0.5 mm 5 mps 729 mmHg 94%
    05:00 +14°C° 0.8 mm 6 mps 729 mmHg 94%
    06:00 +14°C° 0.8 mm 6 mps 730 mmHg 93%
    07:00 +13°C° 0.8 mm 6 mps 730 mmHg 93%
    08:00 +11°C° 0.5 mm 7 mps 731 mmHg 93%
    09:00 +10°C° 0.5 mm 7 mps 731 mmHg 93%
    10:00 +9°C° 0.5 mm 7 mps 732 mmHg 93%
    11:00 +9°C° 0.1 mm 7 mps 732 mmHg 92%
    12:00 +8°C° 0.1 mm 7 mps 732 mmHg 92%
    13:00 +8°C° 0.1 mm 7 mps 733 mmHg 92%
    14:00 +8°C° 0.1 mm 7 mps 733 mmHg 91%
    15:00 +8°C° 0.1 mm 7 mps 733 mmHg 90%
    16:00 +8°C° 0.1 mm 7 mps 733 mmHg 89%
    17:00 +8°C° 0.1 mm 6 mps 733 mmHg 89%
    18:00 +8°C° 0.1 mm 5 mps 733 mmHg 89%
    19:00 +8°C° 0.1 mm 4 mps 734 mmHg 89%
    20:00 +8°C° 0 mm 4 mps 734 mmHg 90%
    21:00 +8°C° 0 mm 4 mps 734 mmHg 90%
    22:00 +7°C° 0 mm 4 mps 734 mmHg 90%
    23:00 +9°C° 0 mm 3 mps 734 mmHg 91%

    24 May, Friday

    Time Temperature Precipitation Wind Pressure Humidity
    00:00 +9°C° 0 mm 3 mps 734 mmHg 91%
    01:00 +9°C° 0 mm 3 mps 735 mmHg 91%
    02:00 +8°C° 0 mm 3 mps 734 mmHg 92%
    03:00 +7°C° 0 mm 3 mps 734 mmHg 93%
    04:00 +5°C° 0 mm 3 mps 734 mmHg 94%
    05:00 +8°C° 0 mm 3 mps 734 mmHg 89%
    06:00 +9°C° 0 mm 3 mps 734 mmHg 85%
    07:00 +10°C° 0 mm 3 mps 734 mmHg 80%
    08:00 +12°C° 0 mm 3 mps 734 mmHg 74%
    09:00 +13°C° 0 mm 3 mps 734 mmHg 67%
    10:00 +16°C° 0 mm 3 mps 734 mmHg 60%
    11:00 +16°C° 0 mm 3 mps 733 mmHg 60%
    12:00 +17°C° 0 mm 3 mps 733 mmHg 59%
    13:00 +17°C° 0 mm 3 mps 733 mmHg 59%
    14:00 +18°C° 0 mm 3 mps 732 mmHg 59%
    15:00 +18°C° 0 mm 2 mps 732 mmHg 59%
    16:00 +18°C° 0 mm 2 mps 732 mmHg 59%
    17:00 +17°C° 0 mm 2 mps 732 mmHg 64%
    18:00 +15°C° 0 mm 1 mps 731 mmHg 68%
    19:00 +13°C° 0 mm 0 mps 731 mmHg 73%
    20:00 +12°C° 0 mm 0 mps 731 mmHg 75%
    21:00 +11°C° 0 mm 0 mps 731 mmHg 78%
    22:00 +11°C° 0 mm 1 mps 731 mmHg 81%
    23:00 +10°C° 0 mm 1 mps 731 mmHg 83%
    Show more